Weather History for KBDN - September, 2013

Change the Weather History Date:

Monday, September 30, 2013

  Actual Average (KRDM) Record (KRDM)
Temperature  
Mean Temperature 45 °F 53 °F  
Max Temperature 53 °F 71 °F 91 °F (2011)
Min Temperature 37 °F 34 °F 23 °F (1954)
Degree Days  
Heating Degree Days 20 12  
Month to date heating degree days 250  
Since 1 July heating degree days 399  
Cooling Degree Days 0 0  
Month to date cooling degree days 16  
Year to date cooling degree days 222  
Moisture  
Dew Point 35 °F    
Average Humidity 66    
Maximum Humidity 94    
Minimum Humidity 47    
Precipitation  
Precipitation 0.16 in 0.01 in 0.22 in (1951)
Month to date precipitation 0.41  
Year to date precipitation 6.14  
Sea Level Pressure  
Sea Level Pressure 29.91 in    
Wind  
Wind Speed 13 mph (SSW)    
Max Wind Speed 23 mph    
Max Gust Speed 30 mph    
Visibility 10 miles    
Events Rain    
T = Trace of Precipitation, MM = Missing Value Source: NWS Daily Summary

Daily Weather History Graph

Daily Weather History Graph

Search for Another Location

Airport or City:

Trip Planner

Search our weather history database for the weather conditions in past years. The results will help you decide how hot, cold, wet, or windy it might be!

Date:

Astronomy

Sep. 30, 2013 Rise Set
Actual Time 7:01 AM PDT 6:46 PM PDT
Civil Twilight 6:32 AM PDT 7:15 PM PDT
Nautical Twilight 5:59 AM PDT 7:49 PM PDT
Astronomical Twilight 5:25 AM PDT 8:22 PM PDT
Moon 2:35 AM PDT (9/30) 4:27 PM PDT (9/30)
Length of Visible Light 12h 42m
Length of Day
11h 45m
Waning Crescent, 18% of the Moon is Illuminated
Sep 30
Waning Crescent
Oct 4
New
Oct 11
First Quarter
Oct 18
Full
Oct 26
Last Quarter

Hourly Weather History & Observations

Time (PDT) Temp. Windchill Dew Point Humidity Pressure Visibility Wind Dir Wind Speed Gust Speed Precip Events Conditions
12:15 AM 50.0 °F - 48.2 °F 94% 29.60 in 3.0 mi SW 18.4 mph 26.5 mph 0.04 in Rain Light Rain
12:35 AM 50.0 °F - 46.4 °F 87% 29.64 in 7.0 mi NNW 12.7 mph 17.3 mph 0.06 in Rain Light Rain
12:55 AM 48.2 °F - 44.6 °F 87% 29.68 in 5.0 mi NNW 9.2 mph - 0.14 in Rain Light Rain
1:15 AM 46.4 °F 41.1 °F 44.6 °F 93% 29.69 in 8.0 mi North 11.5 mph - 0.01 in Rain Light Rain
1:35 AM 44.6 °F 40.7 °F 42.8 °F 93% 29.72 in 10.0 mi NNW 6.9 mph - 0.02 in Rain Light Rain
1:55 AM 44.6 °F 40.7 °F 41.0 °F 87% 29.74 in 10.0 mi North 6.9 mph - 0.02 in Rain Light Rain
2:15 AM 42.8 °F - 39.2 °F 87% 29.77 in 10.0 mi Calm Calm - N/A Rain Light Rain
2:35 AM 42.8 °F 35.4 °F 35.6 °F 76% 29.77 in 10.0 mi SW 15.0 mph 21.9 mph N/A   Mostly Cloudy
2:55 AM 41.0 °F 33.1 °F 33.8 °F 76% 29.78 in 10.0 mi SW 15.0 mph 21.9 mph N/A   Scattered Clouds
3:15 AM 41.0 °F 33.9 °F 32.0 °F 70% 29.79 in 10.0 mi SW 12.7 mph - N/A   Scattered Clouds
3:35 AM 41.0 °F 35.8 °F 33.8 °F 76% 29.78 in 10.0 mi SW 8.1 mph - N/A   Partly Cloudy
3:55 AM 41.0 °F 33.5 °F 33.8 °F 76% 29.79 in 10.0 mi SSW 13.8 mph - N/A   Clear
4:15 AM 41.0 °F 33.1 °F 32.0 °F 70% 29.79 in 10.0 mi SW 15.0 mph - N/A   Clear
4:35 AM 41.0 °F 33.1 °F 32.0 °F 70% 29.80 in 10.0 mi SSW 15.0 mph 24.2 mph N/A   Clear
4:55 AM 39.2 °F 30.5 °F 33.8 °F 81% 29.80 in 10.0 mi South 16.1 mph - N/A   Clear
5:15 AM 39.2 °F 32.0 °F 33.8 °F 81% 29.81 in 10.0 mi SSW 11.5 mph - N/A   Partly Cloudy
5:35 AM 39.2 °F 30.8 °F 32.0 °F 75% 29.81 in 10.0 mi SSW 15.0 mph - N/A   Clear
5:55 AM 41.0 °F 32.2 °F 32.0 °F 70% 29.83 in 10.0 mi SSW 18.4 mph 28.8 mph N/A   Clear
6:15 AM 41.0 °F 32.5 °F 32.0 °F 70% 29.83 in 10.0 mi SW 17.3 mph 24.2 mph N/A   Clear
6:35 AM 39.2 °F 31.6 °F 32.0 °F 75% 29.84 in 10.0 mi South 12.7 mph 24.2 mph N/A   Clear
6:55 AM 37.4 °F 29.8 °F 32.0 °F 81% 29.85 in 10.0 mi South 11.5 mph - N/A   Clear
7:15 AM 39.2 °F 32.5 °F 30.2 °F 70% 29.86 in 10.0 mi South 10.4 mph 16.1 mph N/A   Clear
7:35 AM 39.2 °F 33.6 °F 28.4 °F 65% 29.86 in 10.0 mi SSE 8.1 mph - N/A   Clear
7:55 AM 39.2 °F 33.6 °F 30.2 °F 70% 29.87 in 10.0 mi SSE 8.1 mph - N/A   Clear
8:15 AM 41.0 °F 34.7 °F 30.2 °F 65% 29.88 in 10.0 mi SSE 10.4 mph - N/A   Clear
8:35 AM 42.8 °F 37.5 °F 32.0 °F 66% 29.88 in 10.0 mi SSE 9.2 mph 17.3 mph N/A   Clear
8:55 AM 44.6 °F 39.2 °F 32.0 °F 61% 29.89 in 10.0 mi South 10.4 mph 19.6 mph N/A   Clear
9:15 AM 44.6 °F 38.8 °F 32.0 °F 61% 29.90 in 10.0 mi South 11.5 mph - N/A   Clear
9:35 AM 44.6 °F 38.1 °F 32.0 °F 61% 29.91 in 10.0 mi South 13.8 mph 18.4 mph N/A   Mostly Cloudy
9:55 AM 46.4 °F 40.7 °F 32.0 °F 57% 29.91 in 10.0 mi South 12.7 mph 21.9 mph N/A   Scattered Clouds
10:15 AM 48.2 °F - 32.0 °F 54% 29.92 in 10.0 mi South 15.0 mph - N/A   Partly Cloudy
10:35 AM 48.2 °F - 32.0 °F 54% 29.93 in 10.0 mi SSW 16.1 mph 19.6 mph N/A   Mostly Cloudy
10:55 AM 48.2 °F - 32.0 °F 54% 29.93 in 10.0 mi South 19.6 mph 24.2 mph N/A   Mostly Cloudy
11:15 AM 48.2 °F - 32.0 °F 54% 29.94 in 10.0 mi SSW 13.8 mph 20.7 mph N/A   Mostly Cloudy
11:35 AM 50.0 °F - 32.0 °F 50% 29.94 in 10.0 mi SSW 17.3 mph 26.5 mph N/A   Overcast
11:55 AM 51.8 °F - 33.8 °F 50% 29.94 in 10.0 mi SSW 18.4 mph 26.5 mph N/A   Mostly Cloudy
12:15 PM 51.8 °F - 33.8 °F 50% 29.94 in 10.0 mi SW 17.3 mph 27.6 mph N/A   Scattered Clouds
12:35 PM 51.8 °F - 33.8 °F 50% 29.95 in 10.0 mi SW 20.7 mph 29.9 mph N/A   Partly Cloudy
12:55 PM 51.8 °F - 33.8 °F 50% 29.95 in 10.0 mi SW 17.3 mph 25.3 mph N/A   Clear
1:15 PM 53.6 °F - 33.8 °F 47% 29.95 in 10.0 mi WSW 17.3 mph 26.5 mph N/A   Scattered Clouds
1:35 PM 53.6 °F - 35.6 °F 51% 29.96 in 10.0 mi SW 12.7 mph 25.3 mph N/A   Scattered Clouds
1:55 PM 53.6 °F - 35.6 °F 51% 29.96 in 10.0 mi WSW 16.1 mph 24.2 mph N/A   Partly Cloudy
2:15 PM 53.6 °F - 35.6 °F 51% 29.97 in 10.0 mi SW 16.1 mph 25.3 mph N/A   Scattered Clouds
2:35 PM 53.6 °F - 35.6 °F 51% 29.97 in 10.0 mi SW 20.7 mph 25.3 mph N/A   Partly Cloudy
2:55 PM 51.8 °F - 35.6 °F 54% 29.97 in 10.0 mi SSW 21.9 mph 27.6 mph N/A   Scattered Clouds
3:15 PM 51.8 °F - 35.6 °F 54% 29.97 in 10.0 mi SSW 20.7 mph 26.5 mph N/A   Scattered Clouds
3:35 PM 50.0 °F - 35.6 °F 58% 29.98 in 10.0 mi SSW 16.1 mph 23.0 mph N/A   Partly Cloudy
3:55 PM 50.0 °F - 35.6 °F 58% 29.98 in 10.0 mi SW 15.0 mph 25.3 mph N/A   Scattered Clouds
4:15 PM 50.0 °F - 33.8 °F 54% 29.98 in 10.0 mi SW 15.0 mph 28.8 mph N/A   Scattered Clouds
4:35 PM 50.0 °F - 35.6 °F 58% 29.98 in 10.0 mi SW 16.1 mph 21.9 mph N/A   Partly Cloudy
4:55 PM 50.0 °F - 35.6 °F 58% 29.97 in 10.0 mi SW 15.0 mph 26.5 mph N/A   Scattered Clouds
5:15 PM 50.0 °F - 35.6 °F 58% 29.98 in 10.0 mi SW 23.0 mph 29.9 mph N/A   Partly Cloudy
5:35 PM 50.0 °F - 35.6 °F 58% 29.98 in 10.0 mi SW 13.8 mph - N/A   Clear
5:55 PM 50.0 °F - 35.6 °F 58% 29.98 in 10.0 mi WSW 13.8 mph 18.4 mph N/A   Clear
6:15 PM 50.0 °F - 35.6 °F 58% 29.98 in 10.0 mi WSW 15.0 mph 23.0 mph N/A   Clear
6:35 PM 48.2 °F - 35.6 °F 62% 29.98 in 10.0 mi SW 11.5 mph 23.0 mph N/A   Clear
6:55 PM 48.2 °F - 35.6 °F 62% 29.99 in 10.0 mi SW 6.9 mph 21.9 mph N/A   Clear
7:15 PM 48.2 °F - 35.6 °F 62% 30.00 in 10.0 mi South 5.8 mph - N/A   Scattered Clouds
7:35 PM 46.4 °F 42.9 °F 35.6 °F 66% 30.00 in 10.0 mi South 6.9 mph - N/A   Mostly Cloudy
7:55 PM 46.4 °F 41.1 °F 35.6 °F 66% 30.00 in 10.0 mi SSW 11.5 mph - N/A   Mostly Cloudy
8:15 PM 46.4 °F 40.1 °F 35.6 °F 66% 30.00 in 10.0 mi SW 15.0 mph - N/A   Mostly Cloudy
8:35 PM 46.4 °F 41.1 °F 35.6 °F 66% 30.01 in 10.0 mi SSW 11.5 mph - N/A   Mostly Cloudy
8:55 PM 46.4 °F 41.1 °F 35.6 °F 66% 30.01 in 10.0 mi SSW 11.5 mph - N/A   Scattered Clouds
9:15 PM 46.4 °F 42.4 °F 35.6 °F 66% 30.01 in 10.0 mi SW 8.1 mph - N/A   Mostly Cloudy
9:35 PM 44.6 °F 39.2 °F 35.6 °F 71% 30.01 in 10.0 mi SSW 10.4 mph - N/A   Scattered Clouds
9:55 PM 44.6 °F 38.8 °F 35.6 °F 71% 30.01 in 10.0 mi SSW 11.5 mph - N/A   Mostly Cloudy
10:15 PM 44.6 °F 38.8 °F 35.6 °F 71% 30.02 in 10.0 mi SSW 11.5 mph - N/A   Scattered Clouds
10:35 PM 44.6 °F 39.2 °F 35.6 °F 71% 30.02 in 10.0 mi SW 10.4 mph - N/A   Clear
10:55 PM 42.8 °F 37.0 °F 35.6 °F 76% 30.02 in 10.0 mi SW 10.4 mph 16.1 mph N/A   Clear
11:15 PM 42.8 °F 36.6 °F 35.6 °F 76% 30.02 in 10.0 mi SSW 11.5 mph - N/A   Clear
11:35 PM 41.0 °F 33.9 °F 35.6 °F 81% 30.02 in 10.0 mi SSW 12.7 mph - N/A   Clear
11:55 PM 41.0 °F 34.7 °F 33.8 °F 76% 30.02 in 10.0 mi SSW 10.4 mph - N/A   Clear